Regional Weather Roundup
Issued by NWS Jackson, KY

Home | Current Version | Previous Version | Text Only | Print | Product List | Glossary Off
Versions: 1 2 3 4 5 6 7 8 9 10 11 12 13 14 15 16 17 18 19 20 21 22 23 24 25 26 27 28 29 30 31 32 33 34 35 36 37 38 39 40 41 42 43 44 45 46 47 48 49 50

000
ASUS43 KJKL 081610
RWRJKL

EAST KENTUCKY HOURLY WEATHER ROUNDUP
NATIONAL WEATHER SERVICE JACKSON KY
1100 AM EST MON FEB 08 2016

NOTE: "FAIR" INDICATES FEW OR NO CLOUDS BELOW 12,000 FEET WITH
NO SIGNIFICANT WEATHER AND/OR OBSTRUCTIONS TO VISIBILITY.

* THESE REPORTS ARE NOT UNDER NWS QUALITY CONTROL AND MAY NOT
  REPORT WEATHER SUCH AS PRECIPITATION AND FOG.

KYZ079-080-083-085-087-088-110-112-115-119-120-081700
...EASTERN KENTUCKY...

CITY           SKY/WX    TMP DP  RH WIND       PRES   REMARKS
JACKSON        CLOUDY    39  34  82 VRB6      29.68F WCI  35
LONDON         PTSUNNY   41  33  73 S10       29.69F
SOMERSET*      LGT RAIN  37  32  81 SW13G26   29.72S WCI  29
MONTICELLO*    RAIN      38  33  82 W22       29.74R WCI  27
WILLIAMSBURG*  PTSUNNY   43  32  65 SW12G17   29.70F
MIDDLESBORO*   CLOUDY    44  29  57 SW6       29.72F
HARLAN APT*    PTSUNNY   45  30  57 S8        29.70F
HAZARD APT*    PTSUNNY  N/A N/A N/A MISG      29.69F
BLACK MTN*       N/A     30  27  86 SW2         N/A
BIG SANDY*     CLOUDY    38  35  86 SW9       29.68S WCI  32
MOREHEAD APT*  CLOUDY    36  34  93 W7G14     29.70S WCI  30
$$

KYZ035-036-041-042-044-050-067-078-099-081700
...CENTRAL KENTUCKY...

CITY           SKY/WX    TMP DP  RH WIND       PRES   REMARKS
MT STERLING*   CLOUDY    36  34  93 NW5       29.71R WCI  32
DANVILLE*      LGT SNOW  32  32 100 W3        29.71S VSB 3/4
RICHMOND*      CLOUDY    36  32  87 W5        29.70S WCI  32
LEXINGTON      LGT SNOW  33  31  92 SW5       29.69S FOG     WCI  29
FRANKFORT      CLOUDY    35  32  88 W6        29.68F WCI  30
$$

KYZ091>093-OHZ055-061-077-WVZ005-015-034-035-042-081700
...SOUTHERN OHIO/WEST VIRGINIA...

CITY           SKY/WX    TMP DP  RH WIND       PRES   REMARKS
COVINGTON      CLOUDY    37  33  85 W12       29.66S WCI  29
COLUMBUS       CLOUDY    36  36 100 N5        29.61F WCI  32
DAYTON         CLOUDY    38  33  82 NW9       29.63S WCI  31
WILMINGTON     HVY SNOW  32  32 100 W13       29.62S VSB 1/4 WCI  22
HUNTINGTON     CLOUDY    39  35  86 SW7       29.67R WCI  34
CHARLESTON     CLOUDY    41  28  60 W5        29.66S
PINEVILLE*     CLOUDY    34  28  79 MISG      29.72S
BECKLEY        LGT SNOW  36  25  64 SW9G23    29.65S WCI  29
$$

VAZ002-007-008-TNZ017-027-036-066-071-081700
...SOUTHWEST VIRGINIA/EAST TENNESSEE...

CITY           SKY/WX    TMP DP  RH WIND       PRES   REMARKS
BRISTOL        LGT RAIN  38  33  82 SW9       29.73S WCI  31
KNOXVILLE      MOSUNNY   48  28  46 SW15      29.73F
OAK RIDGE      MOSUNNY   49  29  46 SW8       29.74F
CROSSVILLE     MOSUNNY   42  24  49 W16G25    29.73R
NASHVILLE      PTSUNNY   44  22  41 NW14G23   29.81R
$$

...KEY TO REMARKS...
VSB - VISIBILITY IN MILES
WCI - WIND CHILL INDEX
HX  - HEAT INDEX

$$



USA.gov is the U.S. government's official web portal to all federal, state and local government web resources and services.